カタログに戻る

STARLINK-35284

運用中通信VLEO
NORAD 65741·PAYLOAD·🇺🇸 United States

打ち上げ Sep 25, 2025 から Cape Canaveral Space Force Station

Loading…

次のパス (今後24時間)

TLE

最新Source: CelesTrak SupGP

元期: Sep 14, 2026, 21:06 UTC

1 65741C 25216H   26257.87965278 -.00024979  00000+0 -73783-3 0  2573
2 65741  53.1572 171.9748 0001474 102.2276 120.8219 15.34410363    15

AllMySatでSTARLINK-35284をリアルタイム追跡

Download on the App Store